Showing default

QIANFAN-44, 62245

Orbit data source: Space-Track

QIANFAN-44, 62245 is a Chinese payload satellite in LEO that was launched on Thu, 05 Dec 2024 UTC via a CHANG ZHENG 6A launch vehicle from the Taiyaun Space Center, China (TSC). Payloads include a variety of satellites, spacecraft, and rockets equipped with specific instruments for various scientific and technological missions. These include communications satellites like Starlink; space stations such as the ISS; scientific satellites like the Hubble; Earth observation satellites from companies like Planet Labs, Umbra, and HawkEye 360; GPS; miniature CubeSats for education and research; and military/defense satellites.

Loading next visibility...
QIANFAN-44 details
Identifier
62245, 2024-232J
Orbit
LEO
Last TLE update17 hours ago
Origin
Flag of CNYUANX (CN / PRC)
ManufacturerSECM
MissionOperational Commercial Communications
Bus & MotorQIANFAN, Unknown motor
Mass300 kg wet, ~300 kg dry
Launch date (UTC)
2024-12-05 (2 months ago)
Launch vehicle
CHANG ZHENG 6A
Launch site
Taiyaun Space Center, China (TSC)
Object type
Payload
Rocket body
Debris
Shape & HBRBox + 1 Pan, 10 m
Radar Cross Section13.200 m², Large (>1 m²)

Expand to show TLE details & history

TLE from 17 hours ago
0 QIANFAN-44
1 62245U 24232J   25035.58557591  .00000461  00000-0  20354-3 0  9990
2 62245  88.9887  73.0808 0016463  29.0640 331.1463 14.21609365 57073
Epoch: 2025-02-04T14:03Z
Definitive object data (Epoch: 2025-02-04T14:03:13.758Z)
Latitude-0.00011°
Longitude87.28472°
Altitude812.594 km
Speed7.452 km/s
True Right ascension04h 52m 19s
True Declination0° 00' 00"
Sunlit
Object was in daylight at TLE epoch
Visualization TLE readout
Latitude-31.44003°
Longitude86.58942°
Altitude825.519 km
Speed7.442 km/s
Apparent Right ascension01h 34m 09s
Apparent Declination-54° 08' 23"
Sunlit
Object is in daylight
Visualization observer readout
Local Sidereal Time08:50:14
Azimuth227.976° WSW
Elevation-41.795°
Doppler factor1
Orbital elements
Apogee altitude828.709 km
Perigee altitude805.019 km
Semi-major axis7,195.001 km
Eccentricity0.0016463
Inclination88.9887°
RAAN73.0808°
Arg. of periapsis29.064°
True anomaly331.0551°
Mean anomaly331.1463°
Eccentric anomaly331.10071°
Mean motion3.55629 °/min
BSTAR0.00020354
Orbital period101.23 mins
Loading maneuver chart data...
Loading historical data...
Loading historical data...
Loading historical data...
Loading historical data...
Loading historical data...
Loading historical data...
Loading historical data...

QIANFAN-44 Visibility forecast

Observer location: undefined°, undefined

Span
Click to sort rows by Start time (UTC) header in descending order
Start Az.
Max El. time (UTC)
Max El. Az.
Max El.
End time (UTC)
End Az.
9 mins2025-02-05 14:17:00.932Z12.388° NNE2025-02-05 14:22:00.932Z107.4° ESE38.712°2025-02-05 14:26:00.932Z163.115° S
5 mins2025-02-05 16:00:00.932Z313.906° NW2025-02-05 16:02:00.932Z288.95° WNW16.769°2025-02-05 16:05:00.932Z251.418° W
6 mins2025-02-06 01:41:00.932Z111.13° ESE2025-02-06 01:43:00.932Z83.033° E20.328°2025-02-06 01:47:00.932Z31.299° NE
8 mins2025-02-06 03:21:00.932Z212.753° SW2025-02-06 03:24:00.932Z264.957° W33.717°2025-02-06 03:29:00.932Z343.444° N
|